EUS17DE EGPH-EIDW

Flight info

Callsign EUS17DE
Flight time 0h 45m
Altitude 22000
Route GOSAM P600 TRN/N0341F240 DCT BLACA P620 NIMAT NIMAT4L
Aircraft A20N/M-SDE2E3FGHIRWXY/LB1

Departure

Time 2026-05-03 23:58
Airport Edinburgh Airport (EGPH)

Arrival

Time 2026-05-04 00:43
Airport Dublin Airport (EIDW)
Time Latitude Longitude Altitude Speed Heading
2026-05-03 23:33 55.94947 -3.36379 105 ft 0 kts 149°
2026-05-03 23:50 55.94947 -3.36380 105 ft 0 kts 149°
2026-05-03 23:50 55.94959 -3.36395 105 ft 2 kts 134°
2026-05-03 23:51 55.94968 -3.36416 104 ft 2 kts 120°
2026-05-03 23:51 55.94975 -3.36441 104 ft 2 kts 104°
2026-05-03 23:51 55.94977 -3.36469 104 ft 2 kts 89°
2026-05-03 23:51 55.94975 -3.36496 104 ft 2 kts 74°
2026-05-03 23:52 55.94969 -3.36522 104 ft 2 kts 58°
2026-05-03 23:52 55.94964 -3.36533 104 ft 0 kts 54°
2026-05-03 23:54 55.94979 -3.36492 104 ft 14 kts 62°
2026-05-03 23:55 55.95046 -3.36402 104 ft 11 kts
2026-05-03 23:55 55.95117 -3.36351 104 ft 11 kts 57°
2026-05-03 23:55 55.95160 -3.36219 104 ft 12 kts 60°
2026-05-03 23:55 55.95207 -3.36074 104 ft 14 kts 60°
2026-05-03 23:56 55.95264 -3.35896 104 ft 16 kts 60°
2026-05-03 23:56 55.95322 -3.35718 104 ft 16 kts 59°
2026-05-03 23:56 55.95386 -3.35536 103 ft 17 kts 58°
2026-05-03 23:56 55.95467 -3.35414 103 ft 15 kts 332°
2026-05-03 23:57 55.95556 -3.35544 100 ft 16 kts 280°
2026-05-03 23:57 55.95507 -3.35737 101 ft 19 kts 239°
2026-05-03 23:57 55.95417 -3.36004 102 ft 67 kts 240°
2026-05-03 23:57 55.95036 -3.37139 103 ft 140 kts 239°
2026-05-03 23:58 55.94461 -3.38815 507 ft 162 kts 239°
2026-05-03 23:58 55.93856 -3.40540 1303 ft 163 kts 239°
2026-05-03 23:58 55.93254 -3.42252 2115 ft 163 kts 240°
2026-05-03 23:58 55.92620 -3.44096 2646 ft 179 kts 240°
2026-05-03 23:59 55.91923 -3.46135 3186 ft 196 kts 240°
2026-05-03 23:59 55.91153 -3.48390 3649 ft 221 kts 242°
2026-05-03 23:59 55.90496 -3.50956 4249 ft 238 kts 254°
2026-05-03 23:59 55.90093 -3.53993 4924 ft 255 kts 261°
2026-05-04 00:00 55.89785 -3.57155 5573 ft 260 kts 262°
2026-05-04 00:00 55.89484 -3.60355 5914 ft 259 kts 262°
2026-05-04 00:00 55.89171 -3.63621 5977 ft 259 kts 261°
2026-05-04 00:00 55.88858 -3.66801 5986 ft 259 kts 261°
2026-05-04 00:01 55.88541 -3.69982 5990 ft 259 kts 261°
2026-05-04 00:01 55.88217 -3.73209 5992 ft 259 kts 261°
2026-05-04 00:01 55.87897 -3.76378 5993 ft 259 kts 261°
2026-05-04 00:01 55.87621 -3.79560 6035 ft 258 kts 267°
2026-05-04 00:02 55.87656 -3.82652 6091 ft 258 kts 274°
2026-05-04 00:02 55.87787 -3.85504 6265 ft 264 kts 274°
2026-05-04 00:02 55.87941 -3.88696 7131 ft 269 kts 274°
2026-05-04 00:02 55.88084 -3.91997 8350 ft 265 kts 274°
2026-05-04 00:03 55.88220 -3.95300 9370 ft 267 kts 273°
2026-05-04 00:03 55.88309 -3.98584 10312 ft 270 kts 265°
2026-05-04 00:03 55.87728 -4.01824 10990 ft 284 kts 237°
2026-05-04 00:03 55.86435 -4.04565 11843 ft 290 kts 230°
2026-05-04 00:04 55.85083 -4.07269 12754 ft 294 kts 230°
2026-05-04 00:04 55.83857 -4.10221 13568 ft 298 kts 242°
2026-05-04 00:04 55.82872 -4.13485 14495 ft 300 kts 239°
2026-05-04 00:04 55.81535 -4.16327 15355 ft 305 kts 223°
2026-05-04 00:05 55.79851 -4.18650 16255 ft 307 kts 220°
2026-05-04 00:05 55.78092 -4.20938 17109 ft 310 kts 219°
2026-05-04 00:05 55.76383 -4.23112 17774 ft 316 kts 219°
2026-05-04 00:05 55.74584 -4.25375 18488 ft 320 kts 219°
2026-05-04 00:06 55.72783 -4.27623 19254 ft 322 kts 219°
2026-05-04 00:06 55.70979 -4.29867 20007 ft 324 kts 219°
2026-05-04 00:06 55.69132 -4.32152 20738 ft 326 kts 219°
2026-05-04 00:06 55.67234 -4.34497 21443 ft 329 kts 219°
2026-05-04 00:07 55.65316 -4.36866 21868 ft 329 kts 219°
2026-05-04 00:07 55.63379 -4.39259 22011 ft 342 kts 219°
2026-05-04 00:07 55.61333 -4.41793 22017 ft 363 kts 219°
2026-05-04 00:07 55.59190 -4.44439 22018 ft 375 kts 219°
2026-05-04 00:08 55.56990 -4.47140 22019 ft 377 kts 219°
2026-05-04 00:08 55.55141 -4.49404 22020 ft 378 kts 219°
2026-05-04 00:08 55.53324 -4.51628 22020 ft 378 kts 219°
2026-05-04 00:08 55.51330 -4.54067 22020 ft 378 kts 219°
2026-05-04 00:09 55.49119 -4.56770 22020 ft 378 kts 219°
2026-05-04 00:09 55.46926 -4.59450 22024 ft 383 kts 219°
2026-05-04 00:09 55.44610 -4.62287 22025 ft 400 kts 219°
2026-05-04 00:09 55.42321 -4.65084 22024 ft 415 kts 218°
2026-05-04 00:10 55.39827 -4.68130 22022 ft 424 kts 218°
2026-05-04 00:10 55.37347 -4.71155 22021 ft 425 kts 218°
2026-05-04 00:10 55.34871 -4.74163 22021 ft 425 kts 218°
2026-05-04 00:10 55.32316 -4.77092 22020 ft 427 kts 215°
2026-05-04 00:11 55.29679 -4.79797 22021 ft 429 kts 213°
2026-05-04 00:11 55.26969 -4.82267 22020 ft 430 kts 210°
2026-05-04 00:11 55.24262 -4.84644 22021 ft 429 kts 211°
2026-05-04 00:11 55.21525 -4.87064 22021 ft 429 kts 210°
2026-05-04 00:12 55.18825 -4.89446 22021 ft 429 kts 210°
2026-05-04 00:12 55.16078 -4.91861 22021 ft 428 kts 210°
2026-05-04 00:12 55.13361 -4.94241 22021 ft 428 kts 210°
2026-05-04 00:12 55.10673 -4.96590 22021 ft 428 kts 210°
2026-05-04 00:13 55.08228 -4.98721 22021 ft 428 kts 209°
2026-05-04 00:13 55.05673 -5.00945 22021 ft 428 kts 209°
2026-05-04 00:13 55.02968 -5.03294 22021 ft 428 kts 209°
2026-05-04 00:13 55.00241 -5.05654 22022 ft 426 kts 209°
2026-05-04 00:14 54.97580 -5.07953 22023 ft 424 kts 209°
2026-05-04 00:14 54.94937 -5.10234 22024 ft 421 kts 210°
2026-05-04 00:14 54.92288 -5.12491 22026 ft 420 kts 209°
2026-05-04 00:14 54.89790 -5.14348 22029 ft 419 kts 206°
2026-05-04 00:15 54.88006 -5.15481 22030 ft 419 kts 204°
2026-05-04 00:15 54.85239 -5.16935 22030 ft 421 kts 200°
2026-05-04 00:15 54.82351 -5.18103 22031 ft 423 kts 198°
2026-05-04 00:15 54.79415 -5.19186 22034 ft 422 kts 198°
2026-05-04 00:16 54.76531 -5.20244 22035 ft 422 kts 198°
2026-05-04 00:16 54.73557 -5.21335 22036 ft 422 kts 198°
2026-05-04 00:16 54.70722 -5.22376 22038 ft 422 kts 198°
2026-05-04 00:16 54.67728 -5.23474 22039 ft 422 kts 198°
2026-05-04 00:17 54.64823 -5.24539 22041 ft 422 kts 198°
2026-05-04 00:17 54.61848 -5.25629 22042 ft 423 kts 198°
2026-05-04 00:17 54.58949 -5.26689 22043 ft 422 kts 198°
2026-05-04 00:17 54.55966 -5.27777 22045 ft 423 kts 198°
2026-05-04 00:18 54.53048 -5.28881 22045 ft 421 kts 199°
2026-05-04 00:18 54.50169 -5.30278 22047 ft 418 kts 203°
2026-05-04 00:18 54.47385 -5.31989 22048 ft 416 kts 206°
2026-05-04 00:18 54.44695 -5.34004 22049 ft 414 kts 210°
2026-05-04 00:19 54.42182 -5.36121 22049 ft 413 kts 211°
2026-05-04 00:19 54.39724 -5.38197 22049 ft 414 kts 211°
2026-05-04 00:19 54.37098 -5.40413 22049 ft 414 kts 211°
2026-05-04 00:19 54.34666 -5.42462 22049 ft 414 kts 211°
2026-05-04 00:20 54.32063 -5.44653 22048 ft 414 kts 211°
2026-05-04 00:20 54.29421 -5.46873 22047 ft 414 kts 211°
2026-05-04 00:20 54.26812 -5.49063 22047 ft 413 kts 211°
2026-05-04 00:20 54.24154 -5.51290 22047 ft 413 kts 211°
2026-05-04 00:21 54.21547 -5.53471 22047 ft 413 kts 211°
2026-05-04 00:21 54.18930 -5.55656 22048 ft 413 kts 211°
2026-05-04 00:21 54.16298 -5.57852 22049 ft 413 kts 211°
2026-05-04 00:21 54.13644 -5.60063 22049 ft 413 kts 211°
2026-05-04 00:22 54.11031 -5.62239 22049 ft 413 kts 211°
2026-05-04 00:22 54.08390 -5.64434 22049 ft 413 kts 211°
2026-05-04 00:22 54.05858 -5.66536 22050 ft 414 kts 210°
2026-05-04 00:22 54.03358 -5.68612 21918 ft 414 kts 210°
2026-05-04 00:23 54.00921 -5.70632 21319 ft 411 kts 210°
2026-05-04 00:23 53.98548 -5.72546 20753 ft 410 kts 207°
2026-05-04 00:23 53.96003 -5.73904 20181 ft 414 kts 197°
2026-05-04 00:23 53.93468 -5.74469 19634 ft 418 kts 189°
2026-05-04 00:24 53.90759 -5.74707 19092 ft 412 kts 188°
2026-05-04 00:24 53.88063 -5.74890 18562 ft 402 kts 187°
2026-05-04 00:24 53.85254 -5.75071 18040 ft 391 kts 187°
2026-05-04 00:24 53.82495 -5.75253 17558 ft 381 kts 187°
2026-05-04 00:25 53.79937 -5.75427 17102 ft 372 kts 187°
2026-05-04 00:25 53.77313 -5.75612 16543 ft 366 kts 187°
2026-05-04 00:25 53.74799 -5.75791 16017 ft 360 kts 187°
2026-05-04 00:25 53.72283 -5.75969 15502 ft 354 kts 187°
2026-05-04 00:26 53.69884 -5.76139 15016 ft 348 kts 186°
2026-05-04 00:26 53.67522 -5.76496 14521 ft 339 kts 197°
2026-05-04 00:26 53.65448 -5.78261 14012 ft 327 kts 221°
2026-05-04 00:26 53.64057 -5.81243 13542 ft 321 kts 243°
2026-05-04 00:27 53.63390 -5.84869 13105 ft 317 kts 255°
2026-05-04 00:27 53.62911 -5.88508 12594 ft 315 kts 256°
2026-05-04 00:27 53.62429 -5.92201 12001 ft 316 kts 256°
2026-05-04 00:27 53.61943 -5.95867 11485 ft 314 kts 256°
2026-05-04 00:28 53.61462 -5.99469 11035 ft 310 kts 257°
2026-05-04 00:28 53.60981 -6.03043 10612 ft 306 kts 257°
2026-05-04 00:28 53.60510 -6.06535 10206 ft 302 kts 257°
2026-05-04 00:28 53.60041 -6.10003 10081 ft 287 kts 257°
2026-05-04 00:29 53.59607 -6.13214 10008 ft 272 kts 258°
2026-05-04 00:29 53.59186 -6.16310 9652 ft 269 kts 258°
2026-05-04 00:29 53.58765 -6.19401 9310 ft 266 kts 258°
2026-05-04 00:29 53.58361 -6.22351 8987 ft 262 kts 258°
2026-05-04 00:30 53.57945 -6.25395 8655 ft 259 kts 259°
2026-05-04 00:30 53.57538 -6.28364 8336 ft 257 kts 259°
2026-05-04 00:30 53.57130 -6.31343 8067 ft 251 kts 259°
2026-05-04 00:30 53.56773 -6.34020 8025 ft 237 kts 264°
2026-05-04 00:31 53.56920 -6.36733 8011 ft 227 kts 294°
2026-05-04 00:31 53.57854 -6.38814 8016 ft 229 kts 322°
2026-05-04 00:31 53.59229 -6.40198 8024 ft 231 kts 329°
2026-05-04 00:31 53.60665 -6.41478 8022 ft 231 kts 330°
2026-05-04 00:32 53.62096 -6.42755 8022 ft 231 kts 329°
2026-05-04 00:32 53.63510 -6.44030 8021 ft 231 kts 329°
2026-05-04 00:32 53.64794 -6.45610 7999 ft 227 kts 309°
2026-05-04 00:32 53.65494 -6.47984 7715 ft 228 kts 281°
2026-05-04 00:33 53.65406 -6.50633 7430 ft 231 kts 254°
2026-05-04 00:33 53.63285 -6.54735 6870 ft 237 kts 222°
2026-05-04 00:33 53.61995 -6.56451 6626 ft 235 kts 216°
2026-05-04 00:34 53.60706 -6.58163 6406 ft 231 kts 214°
2026-05-04 00:34 53.59438 -6.59822 6184 ft 228 kts 215°
2026-05-04 00:34 53.58182 -6.61478 5948 ft 226 kts 215°
2026-05-04 00:34 53.56938 -6.63132 5706 ft 223 kts 215°
2026-05-04 00:35 53.55727 -6.64753 5465 ft 221 kts 216°
2026-05-04 00:35 53.54479 -6.66289 5210 ft 218 kts 204°
2026-05-04 00:35 53.53055 -6.67083 4963 ft 212 kts 186°
2026-05-04 00:35 53.51574 -6.67363 4729 ft 210 kts 182°
2026-05-04 00:36 53.50100 -6.67566 4494 ft 209 kts 181°
2026-05-04 00:36 53.48660 -6.67765 4261 ft 209 kts 181°
2026-05-04 00:36 53.47233 -6.67971 4040 ft 208 kts 181°
2026-05-04 00:36 53.45763 -6.67796 3984 ft 214 kts 156°
2026-05-04 00:37 53.44597 -6.66396 3773 ft 204 kts 122°
2026-05-04 00:37 53.44101 -6.64230 3608 ft 191 kts 100°
2026-05-04 00:37 53.43986 -6.62080 3566 ft 178 kts 92°
2026-05-04 00:37 53.43942 -6.59991 3427 ft 174 kts 92°
2026-05-04 00:38 53.43879 -6.58063 3326 ft 157 kts 94°
2026-05-04 00:38 53.43792 -6.56198 3275 ft 156 kts 95°
2026-05-04 00:38 53.43698 -6.54354 3202 ft 156 kts 94°
2026-05-04 00:38 53.43729 -6.52508 3131 ft 156 kts 83°
2026-05-04 00:39 53.44025 -6.50725 3065 ft 157 kts 73°
2026-05-04 00:39 53.44289 -6.48974 2998 ft 156 kts 80°
2026-05-04 00:39 53.44463 -6.47140 2914 ft 156 kts 83°
2026-05-04 00:39 53.44519 -6.45727 2813 ft 155 kts 89°
2026-05-04 00:40 53.44524 -6.44027 2661 ft 155 kts 90°
2026-05-04 00:40 53.44499 -6.42321 2371 ft 154 kts 92°
2026-05-04 00:40 53.44420 -6.40460 1893 ft 156 kts 94°
2026-05-04 00:40 53.44319 -6.38720 1543 ft 149 kts 94°
2026-05-04 00:41 53.44223 -6.37108 1323 ft 135 kts 94°
2026-05-04 00:41 53.44137 -6.35596 1136 ft 125 kts 94°
2026-05-04 00:41 53.44053 -6.34105 978 ft 125 kts 94°
2026-05-04 00:41 53.43972 -6.32624 817 ft 125 kts 94°
2026-05-04 00:42 53.43885 -6.31168 645 ft 124 kts 94°
2026-05-04 00:42 53.43798 -6.29692 461 ft 123 kts 92°
2026-05-04 00:42 53.43723 -6.28234 315 ft 123 kts 93°
2026-05-04 00:42 53.43650 -6.26821 251 ft 110 kts 93°
2026-05-04 00:43 53.43597 -6.25815 251 ft 60 kts 96°
2026-05-04 00:43 53.43560 -6.25361 251 ft 30 kts 107°
2026-05-04 00:43 53.43494 -6.25113 251 ft 21 kts 121°
2026-05-04 00:43 53.43422 -6.24942 251 ft 14 kts 163°
2026-05-04 00:44 53.43381 -6.25068 251 ft 14 kts 274°
2026-05-04 00:44 53.43389 -6.25237 251 ft 15 kts 275°
2026-05-04 00:44 53.43401 -6.25420 251 ft 15 kts 276°
2026-05-04 00:44 53.43397 -6.25607 251 ft 15 kts 241°
2026-05-04 00:45 53.43300 -6.25606 251 ft 15 kts 159°
2026-05-04 00:45 53.43199 -6.25536 251 ft 16 kts 156°
2026-05-04 00:45 53.43096 -6.25460 251 ft 16 kts 160°
2026-05-04 00:45 53.42988 -6.25384 251 ft 17 kts 155°
2026-05-04 00:46 53.42878 -6.25301 251 ft 17 kts 158°
2026-05-04 00:46 53.42800 -6.25169 251 ft 17 kts 99°
2026-05-04 00:46 53.42744 -6.25002 251 ft 17 kts 150°
2026-05-04 00:46 53.42665 -6.24880 251 ft 13 kts 82°
2026-05-04 00:47 53.42705 -6.24755 251 ft 7 kts 112°
2026-05-04 00:47 53.42679 -6.24719 251 ft 5 kts 145°
2026-05-04 00:47 53.42661 -6.24698 251 ft 0 kts 146°